星链-34836 (STARLINK-34836)

导读

STARLINK-34836是美国于2025年8月30日发射的星链卫星,隶属于SpaceX公司的星链项目。该项目旨在构建全球卫星互联网星座,为全球偏远地区、海上、航空等场景提供低延迟高速互联网接入服务,进一步扩充了星链系统的在轨卫星规模,推动全球网络覆盖的完善。

基本信息
目录编号:
65399
目录名称:
STARLINK-34836
国际标识:
2025-191W
轨道中心:
EARTH
卫星名称:
星链-34836
卫星全名:
星链-34836 (STARLINK-34836)
卫星状态:
在轨 (已飞行287 天)
发射日期:
2025-08-30 UTC
国别 :
美国 (US)
星等 :
--
轨道信息
数据来源 国际轨道数据 AOE轨道数据
星历时间 2026-06-13T13:13:57+0800
12小时前
查看轨道信息
2026-06-09T00:00:00+0800
5天前
查看轨道信息
半长轴 6927.675km 6927.644km
偏心率 0.0003121 0.0002192
轨道倾角 97.368° 97.389°
近地点辐角 97.703° 90.255°
升交点赤经 34.822° 30.467°
平近点角 262.455° 95.618°
近地点 547.375km 547.988km
远地点 551.701km 551.026km
周期 95.640分钟 95.640分钟
每日圈数 15.056415 15.056515
详细信息
固有亮度:
5
最大亮度:
2.5
卫星平台:
Starlink V1.0
覆盖范围:
全球
运营商:
太空探索技术公司
运营商所在国:
美国
制造商(研发单位):
太空探索技术公司
制造商所在国:
美国
使用方式:
暂无
卫星简介
Starlink 计划是 SpaceX 推出的全球卫星互联网项目,通过发射低轨道卫星,为全球尤其是偏远地区提供高速、低延迟的互联网服务。自 2019 年起,Starlink 已部署数千颗卫星,旨在缩小全球数字鸿沟,推动互联网普及。该项目还为军事、航空等行业提供通信支持,带来广泛经济效益。
2D轨道图
3D轨道图
轨道高度分析图
轨道倾角分析图
轨道综合分析图
查看轨道综合分析图